This demonstration page uses our WeatherBlox Daily Observations layout. Learn more.

Hourly Observations for August 17, 2017

Temp ( °F °C ) Dew Point ( °F °C ) Humidity (%) Winds ( mph kmh ) Pressure ( in mb ) Visibility ( mi km ) Precip ( " mm )
12:15 am 00:15 Clear 58 14.7 56 13.5 93 93 WNW 5 7 29.97 1015 10 16.09344 0 0
12:35 am 00:35 Clear 58 14.7 56 13.5 93 93 WNW 6 9 29.97 1015 10 16.09344 0 0
12:55 am 00:55 Clear 58 14.5 56 13.2 92 92 NW 6 9 29.97 1015 10 16.09344 0 0
1:15 am 01:15 Clear 57 14 55 12.7 92 92 W 7 11 29.97 1015 10 16.09344 0 0
1:35 am 01:35 Clear 57 14 55 12.6 91 91 WNW 5 7 29.97 1015 10 16.09344 0 0
1:55 am 01:55 Clear 57 13.8 55 12.6 93 93 WNW 5 7 29.97 1015 10 16.09344 0 0
2:15 am 02:15 Clear 56 13.4 54 12.2 93 93 WNW 3 6 29.97 1015 10 16.09344 0 0
2:35 am 02:35 Clear 56 13.5 54 12.3 93 93 WNW 3 6 29.97 1015 10 16.09344 0 0
2:55 am 02:55 Clear 56 13.2 53 11.9 92 92 WNW 5 7 29.97 1015 10 16.09344 0 0
3:15 am 03:15 Clear 55 13 53 11.9 93 93 WNW 5 7 30 1016 10 16.09344 0 0
3:35 am 03:35 Clear 55 12.8 53 11.7 93 93 WNW 6 9 30 1016 10 16.09344 0 0
3:55 am 03:55 Clear 55 12.6 53 11.6 94 94 WNW 7 11 30 1016 10 16.09344 0 0
4:15 am 04:15 Clear 55 12.7 53 11.6 93 93 WNW 6 9 30 1016 10 16.09344 0 0
4:35 am 04:35 Clear 55 13 53 11.9 93 93 WNW 7 11 30 1016 10 16.09344 0 0
4:55 am 04:55 Clear 54 12.4 52 11.2 92 92 Calm 30 1016 10 16.09344 0 0
5:15 am 05:15 Clear 54 12.3 52 11.2 93 93 NW 5 7 30 1016 10 16.09344 0 0
5:35 am 05:35 Clear 54 12.1 52 11 93 93 WNW 5 7 30.03 1017 10 16.09344 0 0
5:55 am 05:55 Clear 54 12.4 52 11.3 93 93 W 5 7 30.03 1017 10 16.09344 0 0
6:15 am 06:15 Clear 54 12 52 11 94 94 WSW 3 6 30.03 1017 10 16.09344 0 0
6:35 am 06:35 Clear 53 11.8 51 10.7 93 93 Calm 30.03 1017 10 16.09344 0 0
6:55 am 06:55 Sunny 53 11.8 51 10.7 93 93 Calm 30.03 1017 10 16.09344 0 0
7:15 am 07:15 Sunny 54 12 51 10.8 92 92 WNW 3 6 30.03 1017 10 16.09344 0 0
7:35 am 07:35 Sunny 54 12.4 52 11.2 92 92 Calm 30.03 1017 10 16.09344 0 0
7:55 am 07:55 Sunny 56 13.2 54 12.1 93 93 WNW 3 6 30.03 1017 10 16.09344 0 0
8:15 am 08:15 Sunny 58 14.5 55 12.8 90 90 WNW 3 6 30 1016 10 16.09344 0 0
8:35 am 08:35 Sunny 60 15.5 56 13.5 88 88 WNW 3 6 30 1016 10 16.09344 0 0
8:55 am 08:55 Sunny 61 16.3 56 13.6 84 84 WNW 3 6 30 1016 10 16.09344 0 0
9:15 am 09:15 Sunny 64 17.5 58 14.5 83 83 W 5 7 29.97 1015 10 16.09344 0 0
9:35 am 09:35 Sunny 66 18.9 59 15.1 79 79 W 5 7 29.97 1015 10 16.09344 0 0
9:55 am 09:55 Sunny 68 20.2 60 15.7 75 75 W 5 7 29.94 1014 10 16.09344 0 0
10:15 am 10:15 Sunny 71 21.5 60 15.6 69 69 W 10 17 29.94 1014 10 16.09344 0 0
10:35 am 10:35 Sunny 73 22.5 61 16 67 67 WSW 8 13 29.94 1014 10 16.09344 0 0
10:55 am 10:55 Sunny 74 23.2 60 15.5 62 62 WSW 10 17 29.94 1014 10 16.09344 0 0
11:15 am 11:15 Sunny 75 23.8 60 15.5 60 60 WSW 10 17 29.91 1013 10 16.09344 0 0
11:35 am 11:35 Sunny 76 24.5 59 15 56 56 WSW 12 19 29.91 1013 10 16.09344 0 0
11:55 am 11:55 Sunny 77 25 60 15.3 55 55 WSW 8 13 29.91 1013 10 16.09344 0 0
12:15 pm 12:15 Sunny 78 25.5 59 15.1 53 53 WSW 10 17 29.91 1013 10 16.09344 0 0
12:35 pm 12:35 Sunny 79 25.9 58 14.6 50 50 WSW 10 17 29.91 1013 10 16.09344 0 0
12:55 pm 12:55 Sunny 80 26.4 56 13.5 45 45 WSW 9 15 29.91 1013 10 16.09344 0 0
1:15 pm 13:15 Sunny 80 26.8 58 14.6 47 47 WSW 8 13 29.91 1013 10 16.09344 0 0
1:35 pm 13:35 Sunny 82 27.5 58 14.4 45 45 WSW 8 13 29.88 1012 10 16.09344 0 0
1:55 pm 13:55 Sunny 82 27.9 57 13.9 42 42 SW 9 15 29.88 1012 10 16.09344 0 0
2:15 pm 14:15 Sunny 82 28 57 13.7 41 41 WSW 7 11 29.88 1012 10 16.09344 0 0
2:35 pm 14:35 Sunny 83 28.6 57 14 41 41 SW 8 13 29.85 1011 10 16.09344 0 0
2:55 pm 14:55 Sunny 84 28.7 55 12.8 38 38 WSW 6 9 29.85 1011 10 16.09344 0 0
3:15 pm 15:15 Sunny 84 29.1 56 13.2 38 38 SW 10 17 29.85 1011 10 16.09344 0 0
3:35 pm 15:35 Sunny 85 29.5 55 12.9 36 36 S 13 20 29.85 1011 10 16.09344 0 0
3:55 pm 15:55 Sunny 85 29.5 55 13 36 36 SSW 8 13 29.85 1011 10 16.09344 0 0
4:15 pm 16:15 Sunny 85 29.5 57 14 39 39 SSW 10 17 29.85 1011 10 16.09344 0 0
4:35 pm 16:35 Sunny 85 29.7 58 14.2 39 39 S 8 13 29.83 1010 10 16.09344 0 0
4:55 pm 16:55 Sunny 85 29.6 56 13.1 36 36 S 8 13 29.83 1010 10 16.09344 0 0
5:15 pm 17:15 Sunny 85 29.7 57 13.9 38 38 S 9 15 29.83 1010 10 16.09344 0 0
5:35 pm 17:35 Sunny 85 29.6 58 14.3 39 39 S 9 15 29.83 1010 10 16.09344 0 0
5:55 pm 17:55 Sunny 85 29.5 57 13.7 38 38 S 10 17 29.83 1010 10 16.09344 0 0
6:15 pm 18:15 Sunny 85 29.2 57 14 39 39 S 10 17 29.83 1010 10 16.09344 0 0
6:35 pm 18:35 Sunny 84 29 58 14.6 41 41 S 7 11 29.83 1010 10 16.09344 0 0
6:55 pm 18:55 Sunny 82 27.9 61 16.3 49 49 SSE 8 13 29.83 1010 10 16.09344 0 0
7:15 pm 19:15 Sunny 78 25.8 62 16.4 56 56 SE 7 11 29.83 1010 10 16.09344 0 0
7:35 pm 19:35 Sunny 78 25.3 62 16.8 59 59 SE 8 13 29.83 1010 10 16.09344 0 0
7:55 pm 19:55 Sunny 77 25 63 17 61 61 SSE 8 13 29.83 1010 10 16.09344 0 0
8:15 pm 20:15 Sunny 76 24.2 62 16.8 63 63 SSE 7 11 29.83 1010 10 16.09344 0 0
8:35 pm 20:35 Clear 74 23.4 63 17.1 68 68 SSE 8 13 29.83 1010 10 16.09344 0 0
8:55 pm 20:55 Clear 73 22.8 63 17.1 70 70 SSE 8 13 29.83 1010 10 16.09344 0 0
9:15 pm 21:15 Clear 73 23 62 16.6 67 67 SSE 7 11 29.83 1010 10 16.09344 0 0
9:35 pm 21:35 Clear 73 22.7 61 16.3 67 67 SSE 9 15 29.85 1011 10 16.09344 0 0
9:55 pm 21:55 Clear 73 22.5 60 15.5 65 65 SSE 8 13 29.85 1011 10 16.09344 0 0
10:15 pm 22:15 Clear 73 22.7 58 14.7 61 61 SSE 8 13 29.85 1011 10 16.09344 0 0
10:35 pm 22:35 Clear 72 22.2 58 14.5 62 62 SSE 7 11 29.83 1010 10 16.09344 0 0
10:55 pm 22:55 Clear 73 22.5 57 14.1 59 59 SSE 8 13 29.8 1009 10 16.09344 0 0
11:15 pm 23:15 Clear 73 22.6 57 13.7 57 57 SSE 9 15 29.8 1009 10 16.09344 0 0
11:35 pm 23:35 Clear 71 21.5 57 14 62 62 SSE 7 11 29.83 1010 10 16.09344 0 0
11:55 pm 23:55 Clear 69 20.5 58 14.4 68 68 SSE 5 7 29.85 1011 10 16.09344 0 0

Powered by AerisWeather